Skip Page Navigation
NASA JPL Caltech
NASA Logo - Jet Propulsion Laboratory + View the NASA Portal
+ Center for Near-Earth Object Studies
JPL Home Earth Solar System Stars & Galaxies Technology
JPL Solar System Dynamics
BODIES ORBITS EPHEMERIDES TOOLS PHYSICAL DATA DISCOVERY FAQ SITE MAP
IMPORTANT: The SSD Announcement email list is now available. Major changes are coming in the near future, including possible hostname and/or URL changes. To be notified of such changes, subscribe to this email list.

Please visit this page for more details.


JPL Small-Body Database Browser
Search: [ help ]  
437287 (2013 AY132)
Classification: Jupiter Trojan          SPK-ID: 2437287
Ephemeris | Orbit Diagram | Orbital Elements | Mission Design | Physical Parameters | Discovery Circumstances ]

[ show orbit diagram ]
Orbital Elements at Epoch 2458600.5 (2019-Apr-27.0) TDB
Reference: JPL 13 (heliocentric ecliptic J2000)
 Element Value Uncertainty (1-sigma)   Units 
e .04021080155446472 1.3868e-07  
a 5.18618871783244 8.5209e-07 au
q 4.977647912475676 1.4785e-06 au
i 10.21141102483409 9.7122e-06 deg
node 131.3291197554565 5.2964e-05 deg
peri 319.1066208789877 0.00035285 deg
M 230.2024776827385 0.00037415 deg
tp 2460155.873884165871
(2023-Jul-30.37388417)
0.0048198 TDB
period 4313.908218764582
11.81
0.0010632
2.911e-06
d
yr
n .08345101048605454 2.0566e-08 deg/d
Q 5.394729523189204 8.8635e-07 au
  Orbit Determination Parameters
   # obs. used (total)      96  
   data-arc span      3272 days (8.96 yr)  
   first obs. used      2010-10-10  
   last obs. used      2019-09-25  
   planetary ephem.      DE431  
   SB-pert. ephem.      SB431-N16  
   condition code      0  
   norm. resid. RMS      .66167  
   source      ORB  
   producer      Otto Matic  
   solution date      2019-Nov-08 15:45:04  

Additional Information
 Earth MOID = 4.0019 au 
 Jupiter MOID = .264027 au 
 T_jup = 2.967 
[ show covariance matrix ]

Ephemeris | Orbit Diagram | Orbital Elements | Mission Design | Physical Parameters | Discovery Circumstances ]

Physical Parameter Table
Parameter Symbol Value Units Sigma Reference Notes
absolute magnitude H 13.7   n/a MPO456078  

437287 (2013 AY132)          Discovered 2010-Oct-10 by Mt. Lemmon Survey at Mount Lemmon
Reference: Last Updated: 2015-06-04

Alternate Designations
 2013 AY132 = 2015 FV325 
Ephemeris | Orbit Diagram | Orbital Elements | Mission Design | Physical Parameters | Discovery Circumstances ]
ABOUT SSD CREDITS/AWARDS PRIVACY/COPYRIGHT GLOSSARY LINKS
FirstGov 2019-Dec-06 15:32 UT
(server date/time)  
NASA Home Page
Site Manager:   Ryan S. Park
Webmaster  Alan B. Chamberlin